Content
SEND FEEDBACK

Daily
Averages
Monthly
Summary
Philippines

QUEZON CITY, PHILIPPINES


Home > Asia > Philippines
Elevation: 151 feet     Latitude: 14 39N     Longitude: 121 03E

WEATHER
 
SELECT A DAY
Number of Records: 179,111;   Date Range: 7/1/96 - 12/25/14
 
SHARE

PRINT THIS DATA

[ ← Previous Day ]
WEATHER ALMANAC - JANUARY 6, 2013
[ Next Day → ]
[ °C ]   °F
Weather ElementAverageHighLow
Temperature82.3 °F90 °F (2:00 pm)75.2 °F (4:00 am)
Dewpoint71.9 °F75.2 °F (1:00 am)68 °F (12:00 pm)
Humidity71.4 %100 % (4:00 am)40 % (2:00 pm)
Barometer29.84 in29.90 in (11:00 pm)29.77 in (2:00 pm)
Wind Speed6.3 mph11.5 mph (2:00 pm)
Weather ElementAverage
Visibility6.2 mi
Wind DirectionENE (82.8 °)

Weather ElementTotal
Precipitation---
Cooling Degree Days17.6 (Base 65)
Growing Degree Days32.6 (Base 50)
Averaged from 30 records on January 6, 2013
WEATHER CONDITIONS BREAKOUT
WIND DIRECTION BREAKOUT
WEATHER BY HOUR - JANUARY 6, 2013
[ °C ]   °F
Local TimeTemperatureDewpointHumidityBarometerVisibilityWind DirectionWind SpeedGust SpeedPrecipitationEventsConditions
1:00 AM77.0 °F75.2 °F94 %29.83 in6.2 miVariable3.5 mphMostly Cloudy
2:00 AM77.0 °F75.0 °F91 %29.83 in6.0 miEast (100°)2.2 mphHaze
2:00 AM77.0 °F75.2 °F94 %29.83 in6.2 miVariable2.3 mphMostly Cloudy
3:00 AM77.0 °F75.2 °F94 %29.80 in6.2 miVariable1.2 mphMostly Cloudy
4:00 AM75.2 °F75.2 °F100 %29.80 in6.2 miCalmScattered Clouds
5:00 AM76.0 °F75.0 °F95 %29.81 in6.0 miCalmHaze
5:00 AM75.2 °F75.2 °F100 %29.83 in6.2 miCalmScattered Clouds
6:00 AM75.2 °F75.2 °F100 %29.83 in6.2 miVariable2.3 mphPartly Cloudy
7:00 AM77.0 °F75.2 °F94 %29.86 in6.2 miENE (70°)3.5 mphScattered Clouds
8:00 AM79.0 °F73.0 °F77 %29.87 in6.0 miENE (70°)4.5 mphHaze
8:00 AM78.8 °F73.4 °F83 %29.86 in6.2 miENE (60°)4.6 mphScattered Clouds
9:00 AM84.2 °F69.8 °F62 %29.89 in6.2 miEast (90°)8.1 mphScattered Clouds
10:00 AM86.0 °F69.8 °F58 %29.89 in6.2 miENE (70°)10.4 mphScattered Clouds
11:00 AM87.0 °F70.0 °F47 %29.88 in6.0 miEast (90°)8.9 mphHaze
11:00 AM87.8 °F69.8 °F55 %29.86 in6.2 miEast (90°)8.1 mphScattered Clouds
12:00 PM89.6 °F68.0 °F49 %29.83 in6.2 miESE (110°)9.2 mphPartly Cloudy
1:00 PM89.6 °F68.0 °F49 %29.80 in6.2 miSE (130°)10.4 mphScattered Clouds
2:00 PM90.0 °F69.0 °F40 %29.79 in6.0 miESE (120°)11.2 mphHaze
2:00 PM89.6 °F68.0 °F49 %29.77 in6.2 miESE (110°)11.5 mphScattered Clouds
3:00 PM89.6 °F69.8 °F52 %29.77 in6.2 miESE (120°)11.5 mphScattered Clouds
4:00 PM87.8 °F69.8 °F55 %29.77 in6.2 miESE (110°)11.5 mphScattered Clouds
5:00 PM86.0 °F70.0 °F49 %29.80 in6.0 miESE (120°)8.9 mphHaze
5:00 PM86.0 °F69.8 °F58 %29.80 in6.2 miESE (120°)9.2 mphScattered Clouds
6:00 PM84.2 °F69.8 °F62 %29.83 in6.2 miESE (120°)5.8 mphScattered Clouds
7:00 PM84.2 °F69.8 °F62 %29.86 in6.2 miESE (120°)5.8 mphScattered Clouds
8:00 PM82.4 °F71.6 °F70 %29.86 in6.2 miESE (120°)5.8 mphPartly Cloudy
9:00 PM80.6 °F71.6 °F74 %29.89 in6.2 miESE (120°)6.9 mphPartly Cloudy
10:00 PM80.6 °F71.6 °F74 %29.89 in6.2 miEast (100°)3.5 mphPartly Cloudy
11:00 PM80.0 °F74.0 °F76 %29.90 in6.0 miESE (120°)8.9 mphHaze
11:00 PM80.6 °F73.4 °F79 %29.89 in6.2 miESE (120°)8.1 mphMostly Cloudy
Hourly data recorded from RPLL, located miles away from Quezon City, Philippines







STORIES FROM OUR PARTNERS